Volver al catálogo

ORBCOMM FM 108

ActivoComunicacionesLEO
NORAD 41187·PAYLOAD·🇺🇸 United States

Lanzado Dec 22, 2015 desde Cape Canaveral Space Force Station

Loading…

Próximos Pases (próximas 24 horas)

TLE

ActualizadoSource: Space-Track

Época: Sep 14, 2026, 01:00 UTC

1 41187U 15081J   26257.04197811  .00000450  00000-0  13121-3 0  9999
2 41187  47.0041 122.0563 0002561 253.1822 106.8783 14.58978907573056

Sigue ORBCOMM FM 108 en tiempo real con AllMySat

Download on the App Store